IK2CHZ Weather Reports


time (UTC)temp
C
wind
direction
speed
KPH
gust
KPH
rain 1hr
cm
rain 24hr
cm
rain mn
cm
humidity
%
barometer
mb
20260507201004 19 219 0.0 0.0 0.00 0.00 0.00 61 1013.3
20260507200003 20 219 0.0 0.0 0.00 0.00 0.00 61 1013.2
20260507195004 20 219 0.0 0.0 0.00 0.00 0.00 62 1013.1
20260507194004 20 219 0.0 0.0 0.00 0.00 0.00 61 1012.9
20260507190504 20 219 0.0 0.0 0.00 0.00 0.00 58 1012.5
20260507190004 20 219 0.0 0.0 0.00 0.00 0.00 58 1012.5
20260507185503 20 219 0.0 0.0 0.00 0.00 0.00 57 1012.5
20260507184504 21 219 0.0 0.0 0.00 0.00 0.00 56 1012.6
20260507184003 21 219 0.0 0.0 0.00 0.00 0.00 56 1012.5
20260507183004 21 219 0.0 0.0 0.00 0.00 0.00 55 1012.5
20260507181504 21 219 0.0 0.0 0.00 0.00 0.00 55 1012.4
20260507181004 21 219 0.0 0.0 0.00 0.00 0.00 55 1012.4
20260507180003 21 219 1.6 4.8 0.00 0.00 0.00 55 1012.0
20260507175004 21 219 1.6 4.8 0.00 0.00 0.00 54 1012.0
20260507174503 21 215 3.2 4.8 0.00 0.00 0.00 54 1011.9
20260507174004 21 215 3.2 8.0 0.00 0.00 0.00 54 1011.9
20260507173504 21 214 1.6 4.8 0.00 0.00 0.00 54 1011.8
20260507173004 21 218 4.8 8.0 0.00 0.00 0.00 53 1011.8
20260507172504 21 216 1.6 8.0 0.00 0.00 0.00 53 1011.8
20260507171504 21 219 3.2 8.0 0.00 0.00 0.00 53 1011.8
20260507171003 21 221 3.2 8.0 0.00 0.00 0.00 52 1011.9
20260507170503 21 213 3.2 4.8 0.00 0.00 0.00 52 1011.7
20260507165504 21 227 4.8 8.0 0.00 0.00 0.00 52 1011.7
20260507164503 22 206 4.8 9.7 0.00 0.00 0.00 52 1011.6
20260507163003 22 250 1.6 9.7 0.00 0.00 0.00 52 1011.6
20260507162503 22 226 0.0 4.8 0.00 0.00 0.00 53 1011.5
20260507161503 21 223 4.8 11.3 0.00 0.00 0.00 54 1011.6
20260507160504 22 233 8.0 14.5 0.00 0.00 0.00 51 1011.6
20260507160004 21 233 3.2 4.8 0.00 0.00 0.00 53 1011.6
20260507155004 22 225 6.4 11.3 0.00 0.00 0.00 53 1011.5
20260507154504 21 257 3.2 9.7 0.00 0.00 0.00 53 1011.5
20260507154004 21 253 1.6 8.0 0.00 0.00 0.00 53 1011.6
20260507153003 21 224 4.8 9.7 0.00 0.00 0.00 52 1011.7
20260507150004 21 257 4.8 9.7 0.00 0.00 0.00 52 1011.8
20260507145503 22 280 6.4 12.9 0.00 0.00 0.00 52 1011.8
20260507145003 22 207 4.8 8.0 0.00 0.00 0.00 53 1011.8
20260507144503 21 217 3.2 11.3 0.00 0.00 0.00 52 1011.8
20260507144003 21 284 1.6 8.0 0.00 0.00 0.00 53 1011.9
20260507143503 21 287 8.0 16.1 0.00 0.00 0.00 53 1012.0
20260507142504 21 266 3.2 12.9 0.00 0.00 0.00 54 1012.0
20260507142003 21 270 8.0 16.1 0.00 0.00 0.00 53 1012.0
20260507141503 21 281 8.0 12.9 0.00 0.00 0.00 53 1012.0
20260507140503 21 256 4.8 8.0 0.00 0.00 0.00 55 1012.0
20260507135003 21 257 1.6 11.3 0.00 0.00 0.00 53 1012.0
20260507134504 21 248 9.7 19.3 0.00 0.00 0.00 53 1012.1
20260507132504 21 290 4.8 11.3 0.00 0.00 0.00 55 1012.3
20260507132004 21 294 4.8 8.0 0.00 0.00 0.00 55 1012.3
20260507131504 21 277 6.4 11.3 0.00 0.00 0.00 53 1012.5
20260507125503 21 315 4.8 14.5 0.00 0.00 0.00 53 1012.4
20260507125003 21 259 8.0 12.9 0.00 0.00 0.00 52 1012.4
20260507124004 21 255 1.6 8.0 0.00 0.00 0.00 55 1012.5
20260507123503 20 253 4.8 9.7 0.00 0.00 0.00 54 1012.7
20260507122503 20 274 6.4 16.1 0.00 0.00 0.00 55 1012.6
20260507122003 20 288 1.6 9.7 0.00 0.00 0.00 56 1012.7
20260507121504 20 260 3.2 11.3 0.00 0.00 0.00 58 1012.7
20260507120504 20 301 4.8 9.7 0.00 0.00 0.00 56 1012.8
20260507112504 20 273 4.8 12.9 0.00 0.00 0.00 58 1013.1
20260507112004 20 306 3.2 9.7 0.00 0.00 0.00 59 1013.2
20260507111506 20 311 1.6 9.7 0.00 0.00 0.00 59 1013.3
20260507111003 20 273 4.8 14.5 0.00 0.00 0.00 58 1013.3
20260507110504 20 17 4.8 9.7 0.00 0.00 0.00 60 1013.3
20260507110004 19 246 3.2 16.1 0.00 0.00 0.00 59 1013.3
20260507105503 20 328 4.8 12.9 0.00 0.00 0.00 57 1013.5
20260507103004 19 344 1.6 8.0 0.00 0.00 0.00 63 1013.4
20260507101504 18 310 3.2 9.7 0.00 0.00 0.00 61 1013.7
20260507101004 18 0 0.0 4.8 0.00 0.00 0.00 64 1013.7
20260507092503 17 350 4.8 9.7 0.00 0.18 0.00 70 1013.8
20260507091504 17 328 4.8 11.3 0.00 0.18 0.00 71 1013.7
20260507090504 16 296 3.2 8.0 0.00 0.23 0.00 73 1013.6
20260507090004 17 305 4.8 11.3 0.00 0.30 0.00 73 1013.6
20260507083004 17 282 1.6 8.0 0.00 0.64 0.00 69 1013.4
20260507082504 17 305 3.2 8.0 0.00 0.64 0.00 67 1013.4
20260507081504 17 320 1.6 4.8 0.00 0.66 0.00 69 1013.4
20260507081003 17 306 3.2 4.8 0.00 0.71 0.00 69 1013.4
20260507074003 16 355 0.0 0.0 0.00 0.74 0.00 75 1013.2
20260507065003 15 355 0.0 0.0 0.00 0.76 0.00 81 1012.8
20260507063504 14 355 0.0 3.2 0.00 0.79 0.00 81 1012.8
20260507063004 14 355 0.0 0.0 0.00 0.79 0.00 82 1013.0
20260507062503 14 355 0.0 0.0 0.00 0.79 0.00 82 1012.9
20260507062003 13 355 0.0 0.0 0.00 0.79 0.00 82 1012.8
20260507061004 13 355 0.0 1.6 0.00 0.79 0.00 83 1012.7
20260507060503 13 355 1.6 3.2 0.00 0.79 0.00 83 1012.7
20260507055504 13 355 0.0 3.2 0.00 0.79 0.00 83 1012.6
20260507054004 13 355 0.0 1.6 0.00 0.79 0.00 84 1012.6
20260507053504 13 355 0.0 1.6 0.00 0.79 0.00 84 1012.5
20260507052003 12 355 1.6 3.2 0.00 0.79 0.00 85 1012.4
20260507051503 12 355 0.0 3.2 0.00 0.81 0.00 85 1012.3
20260507050003 13 355 0.0 0.0 0.00 0.81 0.00 85 1012.0
20260507045503 13 355 0.0 0.0 0.00 0.81 0.00 85 1011.9
20260507043503 12 355 0.0 0.0 0.00 1.02 0.00 85 1011.8
20260507042503 12 355 0.0 1.6 0.00 1.14 0.00 85 1011.6
20260507032504 12 346 1.6 3.2 0.00 1.45 0.00 86 1011.3
20260507032003 12 344 1.6 3.2 0.00 1.45 0.00 85 1011.3
20260507031503 12 344 1.6 3.2 0.00 1.45 0.00 85 1011.3
20260507030004 12 346 1.6 4.8 0.00 1.45 0.00 84 1011.3
20260507025504 12 346 1.6 3.2 0.00 1.45 0.00 84 1011.3
20260507023503 12 346 1.6 3.2 0.00 1.45 0.00 84 1011.2
20260507023003 12 346 0.0 4.8 0.00 1.45 0.00 83 1011.1
20260507022004 12 338 1.6 4.8 0.00 1.45 0.00 83 1011.2
20260507021004 12 333 1.6 4.8 0.00 1.45 0.00 82 1011.2
20260507015504 13 335 1.6 4.8 0.00 1.45 0.00 82 1011.2
20260507014504 13 331 1.6 4.8 0.00 1.45 0.00 82 1011.2
20260507013504 13 335 3.2 4.8 0.00 1.45 0.00 81 1011.1
20260507013004 13 333 1.6 4.8 0.00 1.45 0.00 82 1011.1
20260507012004 13 333 1.6 4.8 0.00 1.45 0.00 81 1011.2
20260507011004 13 347 3.2 4.8 0.00 1.45 0.00 80 1011.0
20260507005504 13 4 3.2 4.8 0.00 1.45 0.00 80 1010.8
20260507005004 13 355 1.6 4.8 0.00 1.45 0.00 80 1010.8
20260507004004 13 0 3.2 4.8 0.00 1.45 0.00 80 1011.0
20260507003504 13 0 3.2 4.8 0.00 1.45 0.00 80 1011.0
20260507002504 13 3 1.6 4.8 0.00 1.45 0.00 80 1011.0
20260507000504 13 356 1.6 4.8 0.00 1.45 0.00 81 1011.0
20260507000004 13 3 1.6 4.8 0.00 1.45 0.00 80 1011.1
20260506235504 13 11 1.6 4.8 0.00 1.45 0.00 81 1010.9
20260506235004 13 6 1.6 4.8 0.00 1.45 0.00 81 1011.0
20260506233504 13 355 1.6 4.8 0.00 1.45 0.00 81 1011.0
20260506231004 13 355 1.6 3.2 0.00 1.45 0.00 81 1010.6
20260506230004 13 355 1.6 4.8 0.00 1.45 0.00 80 1010.4
20260506225503 13 0 1.6 4.8 0.00 1.45 0.00 80 1010.4
20260506225004 13 0 1.6 4.8 0.00 1.45 0.00 80 1010.5
20260506224503 13 0 1.6 4.8 0.00 1.45 0.00 80 1010.4
20260506223504 13 9 1.6 4.8 0.00 1.45 0.00 80 1010.5
20260506222503 13 12 1.6 3.2 0.00 1.45 0.00 80 1010.6
20260506215504 14 13 1.6 3.2 0.00 1.45 1.45 77 1010.5
20260506214504 14 13 1.6 3.2 0.00 1.45 1.45 76 1010.3
20260506213504 15 19 1.6 4.8 0.00 1.45 1.45 75 1010.4
20260506213004 15 21 1.6 4.8 0.00 1.45 1.45 75 1010.4
20260506212004 14 25 3.2 4.8 0.00 1.45 1.45 76 1010.4
20260506211503 14 18 1.6 4.8 0.00 1.45 1.45 77 1010.4
20260506211003 14 11 1.6 4.8 0.00 1.45 1.45 77 1010.3
20260506210503 14 9 1.6 4.8 0.00 1.45 1.45 78 1010.3
20260506210004 14 11 1.6 4.8 0.00 1.45 1.45 78 1010.2
20260506205504 14 18 1.6 4.8 0.00 1.45 1.45 78 1010.2
20260506205003 14 10 3.2 8.0 0.00 1.47 1.45 78 1010.3
20260506204503 14 10 3.2 4.8 0.00 1.47 1.45 77 1010.2
20260506204003 14 24 1.6 8.0 0.00 1.50 1.45 77 1010.2
20260506203504 14 8 3.2 8.0 0.00 1.52 1.45 77 1010.2